Regional Weather Roundup
Issued by NWS Midland/Odessa, TX

Skip options and go directly to product.
Home | Oldest Version | Previous Version | Current Version | All | Text Only | Save Text | Print | Product List | Glossary On

Skip product version selection by date and time.   
742
ASUS44 KMAF 270302
RWRMAF
MIDLAND AREA WEATHER ROUNDUP
NATIONAL WEATHER SERVICE MIDLAND TX
900 PM CST WED NOV 26 2014

...IN SOUTHWEST TEXAS AND SOUTHEAST NEW MEXICO...

CITY           SKY/WX    TMP DP  RH WIND       PRES   REMARKS
ALPINE         CLEAR     40  25  54 W5        30.39S WCI  37
ANDREWS        FAIR      41  28  60 E6        30.32S WCI  38
ARTESIA        NOT AVBL
BIG SPRING     CLEAR     46  32  56 E8        30.36R
CARLSBAD       CLEAR     44  26  49 SW9       30.29R WCI  39
DRYDEN           N/A     56  24  29 N9        30.28R
FORT STOCKTON  CLEAR     49  24  37 S8        30.31R
GUAD PASS      NOT AVBL
HOBBS          CLEAR     41  28  60 NE7       30.33R WCI  36
MARFA          CLEAR     36  18  48 NW5       30.36R WCI  32
MIDLAND AIRPK  CLEAR     49  33  55 E5        30.33S
MIDLAND INTL   CLEAR     50  31  48 E10       30.32R
ODESSA         CLEAR     46  28  49 E9        30.32R
PECOS          CLEAR     48  24  39 E3        30.29R
PRESIDIO       FAIR      53  22  29 N9        30.28R
SEMINOLE       CLEAR     42  29  58 E6        30.34R WCI  39
SNYDER         CLEAR     46  33  61 E6        30.36R
WINK           CLEAR     48  24  39 E7        30.29R
$$
...OTHER STATIONS IN TEXAS...

CITY           SKY/WX    TMP DP  RH WIND       PRES   REMARKS
ABILENE        CLEAR     45  34  65 E5        30.36R
AMARILLO       CLEAR     38  23  55 E9        30.37R WCI  31
AUSTIN         CLEAR     48  37  65 N7        30.30R
BROWNSVILLE    CLEAR     54  51  90 SE3       30.30R
CORPUS CHRISTI CLEAR     56  51  84 S6        30.27R
DALLAS FTW     CLEAR     49  37  63 N13       30.32R
DEL RIO        CLEAR     52  37  56 CALM      30.26R
EL PASO        CLEAR     55  20  25 N8        30.29R
HOUSTON INT    CLEAR     50  43  77 CALM      30.27R
LUBBOCK        CLEAR     39  25  57 E7        30.34R WCI  34
SAN ANGELO     CLEAR     47  32  56 NE3       30.34R
SAN ANTONIO    CLEAR     52  41  66 NW7       30.28R
WACO           CLEAR     50  36  58 N7        30.33R
WICHITA FALLS  NOT AVBL
$$
...OTHER LOCATIONS IN NEW MEXICO...

CITY           SKY/WX    TMP DP  RH WIND       PRES   REMARKS
ALAMAGORDO     CLEAR     46  19  34 MISG      30.30R
ALBUQUERQUE    PTCLDY    51  23  33 NE7       30.38R
CANNON AFB     PTCLDY    37  25  62 SE6       30.33R WCI  32
CLOVIS         PTCLDY    37  23  56 SE7       30.33R WCI  32
HOLLOMAN AFB   CLEAR     46  20  35 NW6       30.30R
ROSWELL        CLEAR     45  26  47 VRB7      30.29R
RUIDOSO        CLEAR     46  19  34 NW16      30.38S WCI  40
SANTA FE       CLEAR     35  20  54 NE7       30.38R WCI  29
TRUTH OR CONSE CLEAR     45  20  36 NW7       30.33R
TUCUMCARI      CLEAR     36  26  67 NE6       30.31R WCI  31
$$

USA.gov is the U.S. government's official web portal to all federal, state and local government web resources and services.